Weather History for Soldotna, AK

Change the Weather History Date:

Tuesday, February 11, 2014

  Actual Average Record
Temperature  
Mean Temperature 7 °F -  
Max Temperature 19 °F 26 °F 45 °F (1970)
Min Temperature -5 °F 7 °F -35 °F (1956)
Degree Days  
Heating Degree Days 58    
Moisture  
Dew Point -5 °F    
Average Humidity 69    
Maximum Humidity 92    
Minimum Humidity 42    
Precipitation  
Precipitation 0.00 in - - ()
Sea Level Pressure  
Sea Level Pressure 29.68 in    
Wind  
Wind Speed 3 mph (ENE)    
Max Wind Speed 7 mph    
Max Gust Speed -    
Visibility 10 miles    
Events      
Averages and records for this station are not official NWS values.
T = Trace of Precipitation, MM = Missing Value Source: NWS Daily Summary

Daily Weather History Graph

Daily Weather History Graph

Search for Another Location

Airport:

Trip Planner

Search our weather history database for the weather conditions in past years. The results will help you decide how hot, cold, wet, or windy it might be!

Date:

Astronomy

Feb. 11, 2014 Rise Set
Actual Time 8:54 AM AKST 5:43 PM AKST
Civil Twilight 8:08 AM AKST 6:29 PM AKST
Nautical Twilight 7:18 AM AKST 7:19 PM AKST
Astronomical Twilight 6:30 AM AKST 8:07 PM AKST
Moon 2:51 PM AKST (2/11) 7:01 AM AKST (2/11)
Length of Visible Light 10h 20m
Length of Day
8h 49m
Waxing Gibbous, 91% of the Moon is Illuminated
Feb 11
Waxing Gibbous
Feb 14
Full
Feb 22
Last Quarter
Feb 28
New
Mar 8
First Quarter

Hourly Weather History & Observations

Time (AKST) Temp. Windchill Dew Point Humidity Pressure Visibility Wind Dir Wind Speed Gust Speed Precip Events Conditions
12:16 AM 1.4 °F -8.3 °F -5.8 °F 72% 29.88 in 10.0 mi ENE 4.6 mph - N/A   Clear
12:36 AM 1.4 °F -8.3 °F -4.0 °F 78% 29.87 in 10.0 mi East 4.6 mph - N/A   Clear
12:56 AM 1.4 °F -8.3 °F -5.8 °F 72% 29.87 in 10.0 mi ENE 4.6 mph - N/A   Clear
1:16 AM 1.4 °F -8.3 °F -7.6 °F 66% 29.86 in 10.0 mi East 4.6 mph - N/A   Clear
1:36 AM -0.4 °F - -7.6 °F 72% 29.86 in 10.0 mi Calm Calm - N/A   Clear
1:56 AM -0.4 °F -10.4 °F -5.8 °F 78% 29.86 in 10.0 mi ENE 4.6 mph - N/A   Clear
2:16 AM -2.2 °F - -11.2 °F 66% 29.85 in 10.0 mi Calm Calm - N/A   Clear
2:36 AM -2.2 °F -10.4 °F -7.6 °F 78% 29.85 in 10.0 mi ENE 3.5 mph - N/A   Clear
2:56 AM -0.4 °F -8.3 °F -7.6 °F 72% 29.84 in 10.0 mi NE 3.5 mph - N/A   Clear
3:16 AM -4.0 °F -14.6 °F -11.2 °F 71% 29.83 in 10.0 mi East 4.6 mph - N/A   Clear
3:36 AM -2.2 °F -12.5 °F -4.0 °F 92% 29.83 in 10.0 mi East 4.6 mph - N/A   Clear
3:56 AM -2.2 °F -12.5 °F -5.8 °F 85% 29.82 in 10.0 mi ENE 4.6 mph - N/A   Clear
4:16 AM -2.2 °F -10.4 °F -5.8 °F 85% 29.81 in 10.0 mi East 3.5 mph - N/A   Clear
4:36 AM -4.0 °F -14.6 °F -11.2 °F 71% 29.81 in 10.0 mi East 4.6 mph - N/A   Clear
4:56 AM -4.0 °F - -5.8 °F 92% 29.80 in 10.0 mi Calm Calm - N/A   Clear
5:16 AM -5.8 °F - -13.0 °F 71% 29.79 in 10.0 mi Calm Calm - N/A   Clear
5:36 AM -5.8 °F -16.7 °F -9.4 °F 84% 29.79 in 10.0 mi ENE 4.6 mph - N/A   Clear
5:56 AM -4.0 °F -17.8 °F -9.4 °F 78% 29.78 in 10.0 mi East 6.9 mph - N/A   Clear
6:16 AM -4.0 °F -12.4 °F -9.4 °F 78% 29.78 in 10.0 mi ENE 3.5 mph - N/A   Clear
6:36 AM -4.0 °F -14.6 °F -7.6 °F 85% 29.78 in 10.0 mi East 4.6 mph - N/A   Clear
6:56 AM -4.0 °F -16.3 °F -9.4 °F 78% 29.77 in 10.0 mi East 5.8 mph - N/A   Clear
7:16 AM -5.8 °F -18.4 °F -9.4 °F 84% 29.77 in 10.0 mi East 5.8 mph - N/A   Clear
7:36 AM -5.8 °F -18.4 °F -9.4 °F 84% 29.76 in 10.0 mi East 5.8 mph - N/A   Clear
7:56 AM -5.8 °F -16.7 °F -9.4 °F 84% 29.76 in 10.0 mi ENE 4.6 mph - N/A   Clear
8:16 AM -5.8 °F -19.9 °F -9.4 °F 84% 29.76 in 10.0 mi East 6.9 mph - N/A   Clear
8:36 AM -5.8 °F -19.9 °F -11.2 °F 77% 29.75 in 10.0 mi East 6.9 mph - N/A   Clear
8:56 AM -5.8 °F -19.9 °F -9.4 °F 84% 29.75 in 10.0 mi East 6.9 mph - N/A   Clear
9:16 AM -5.8 °F -19.9 °F -11.2 °F 77% 29.74 in 10.0 mi East 6.9 mph - N/A   Clear
9:36 AM -5.8 °F -18.4 °F -9.4 °F 84% 29.74 in 10.0 mi East 5.8 mph - N/A   Clear
9:56 AM -4.0 °F -14.6 °F -7.6 °F 85% 29.74 in 10.0 mi East 4.6 mph - N/A   Clear
10:16 AM -2.2 °F -12.5 °F -7.6 °F 78% 29.74 in 10.0 mi East 4.6 mph - N/A   Clear
10:36 AM -0.4 °F -12.0 °F -5.8 °F 78% 29.73 in 10.0 mi East 5.8 mph - N/A   Clear
10:56 AM -0.4 °F -8.3 °F -5.8 °F 78% 29.72 in 10.0 mi East 3.5 mph - N/A   Clear
11:16 AM 1.4 °F -8.3 °F -2.2 °F 85% 29.72 in 10.0 mi East 4.6 mph - N/A   Clear
11:36 AM 3.2 °F -6.2 °F -0.4 °F 85% 29.72 in 10.0 mi ENE 4.6 mph - N/A   Clear
11:56 AM 6.8 °F - -0.4 °F 72% 29.71 in 10.0 mi Calm Calm - N/A   Clear
12:16 PM 8.6 °F - 1.4 °F 73% 29.71 in 10.0 mi Calm Calm - N/A   Clear
12:36 PM 10.4 °F - 3.2 °F 73% 29.70 in 10.0 mi Calm Calm - N/A   Clear
12:56 PM 12.2 °F - 3.2 °F 67% 29.69 in 10.0 mi Calm Calm - N/A   Clear
1:16 PM 15.8 °F - 3.2 °F 58% 29.68 in 10.0 mi Calm Calm - N/A   Clear
1:36 PM 15.8 °F - 3.2 °F 58% 29.68 in 10.0 mi Calm Calm - N/A   Clear
1:56 PM 17.6 °F - 3.2 °F 53% 29.66 in 10.0 mi Calm Calm - N/A   Clear
2:16 PM 19.4 °F - 1.4 °F 46% 29.66 in 10.0 mi Calm Calm - N/A   Clear
2:36 PM 17.6 °F - 1.4 °F 49% 29.64 in 10.0 mi Calm Calm - N/A   Clear
2:56 PM 19.4 °F - 1.4 °F 46% 29.64 in 10.0 mi Calm Calm - N/A   Clear
3:16 PM 19.4 °F 14.3 °F 3.2 °F 49% 29.63 in 10.0 mi NNE 3.5 mph - N/A   Clear
3:36 PM 19.4 °F 11.5 °F 3.2 °F 49% 29.62 in 10.0 mi NE 5.8 mph - N/A   Clear
3:56 PM 19.4 °F 14.3 °F 1.4 °F 46% 29.60 in 10.0 mi ENE 3.5 mph - N/A   Clear
4:16 PM 19.4 °F 12.8 °F 1.4 °F 46% 29.60 in 10.0 mi North 4.6 mph - N/A   Clear
4:36 PM 19.4 °F 11.5 °F -0.4 °F 42% 29.60 in 10.0 mi NNE 5.8 mph - N/A   Clear
4:56 PM 19.4 °F 12.8 °F -0.4 °F 42% 29.59 in 10.0 mi NNE 4.6 mph - N/A   Clear
5:16 PM 19.4 °F - -0.4 °F 42% 29.58 in 10.0 mi Calm Calm - N/A   Mostly Cloudy
5:36 PM 17.6 °F - -0.4 °F 45% 29.57 in 10.0 mi Calm Calm - N/A   Partly Cloudy
5:56 PM 15.8 °F - -2.2 °F 45% 29.57 in 10.0 mi Calm Calm - N/A   Scattered Clouds
6:16 PM 12.2 °F - -2.2 °F 53% 29.57 in 10.0 mi Calm Calm - N/A   Overcast
6:36 PM 14.0 °F - -0.4 °F 53% 29.56 in 10.0 mi Calm Calm - N/A   Overcast
6:56 PM 10.4 °F - -2.2 °F 57% 29.56 in 10.0 mi Calm Calm - N/A   Overcast
7:16 PM 12.2 °F - 1.4 °F 62% 29.55 in 10.0 mi Calm Calm - N/A   Overcast
7:36 PM 8.6 °F 0.1 °F -4.0 °F 57% 29.55 in 10.0 mi NE 4.6 mph - N/A   Overcast
7:56 PM 10.4 °F - -2.2 °F 57% 29.54 in 10.0 mi Calm Calm - N/A   Mostly Cloudy
8:16 PM 6.8 °F - -2.2 °F 67% 29.54 in 10.0 mi Calm Calm - N/A   Mostly Cloudy
8:36 PM 5.0 °F - -5.8 °F 61% 29.53 in 10.0 mi Calm Calm - N/A   Scattered Clouds
8:56 PM 5.0 °F - -2.2 °F 72% 29.52 in 10.0 mi Calm Calm - N/A   Mostly Cloudy
9:16 PM 5.0 °F - -4.0 °F 66% 29.52 in 10.0 mi Calm Calm - N/A   Partly Cloudy
9:36 PM 1.4 °F - -7.6 °F 66% 29.51 in 10.0 mi Calm Calm - N/A   Mostly Cloudy
9:56 PM 1.4 °F - -5.8 °F 72% 29.51 in 10.0 mi Calm Calm - N/A   Mostly Cloudy
10:16 PM 1.4 °F - -7.6 °F 66% 29.50 in 10.0 mi Calm Calm - N/A   Partly Cloudy
10:36 PM -0.4 °F - -7.6 °F 72% 29.50 in 10.0 mi Calm Calm - N/A   Scattered Clouds
10:56 PM -0.4 °F - -7.6 °F 72% 29.49 in 10.0 mi Calm Calm - N/A   Partly Cloudy
11:16 PM -0.4 °F - -7.6 °F 72% 29.49 in 10.0 mi Calm Calm - N/A   Partly Cloudy
11:36 PM -2.2 °F - -9.4 °F 71% 29.48 in 10.0 mi Calm Calm - N/A   Mostly Cloudy
11:56 PM -2.2 °F - -9.4 °F 71% 29.47 in 10.0 mi Calm Calm - N/A   Mostly Cloudy